Location: Ciserano
(45.5833°N, 9.6000°E)
Time: 18:29:44
(UTC+00:00)

USA 308 - Visible Passes

Search period start: 16 April 2021 00:00
Search period end: 26 April 2021 00:00
Orbit: 568 x 576 km, 54.0° (Epoch: 16 April)

Date Brightness Start Highest point End Pass type
(mag) Time Alt. Az. Time Alt. Az. Time Alt. Az.
16 Apr 3.8 01:39:44 43° NNW 01:39:44 43° NNW 01:43:41 10° NE visible
16 Apr 4.7 03:16:41 10° WNW 03:20:20 26° N 03:24:00 10° ENE visible
17 Apr 5.7 00:05:07 13° ENE 00:05:07 13° ENE 00:05:35 10° ENE visible
17 Apr 4.1 01:41:12 35° NNW 01:41:33 35° NNW 01:45:33 10° NE visible
17 Apr 4.8 03:18:46 10° NW 03:22:26 26° N 03:26:05 10° ENE visible
18 Apr 5.5 00:06:33 16° NE 00:06:33 16° NE 00:07:29 10° NE visible
18 Apr 4.4 01:42:38 28° NW 01:43:36 31° NNW 01:47:27 10° NE visible
18 Apr 4.8 03:20:46 10° NW 03:24:31 28° N 03:28:15 10° ENE visible
19 Apr 5.3 00:07:57 20° NE 00:07:57 20° NE 00:09:19 10° NE visible
19 Apr 4.7 01:44:03 22° NW 01:45:39 28° N 01:49:24 10° NE visible
19 Apr 4.7 03:22:43 10° NW 03:26:34 31° NNE 03:30:25 10° ENE visible
20 Apr 5.1 00:09:20 23° NE 00:09:20 23° NE 00:11:09 10° NE visible
20 Apr 4.8 01:45:25 17° NW 01:47:43 26° N 01:51:23 10° NE visible
20 Apr 4.5 03:24:36 10° NW 03:28:36 36° NNE 03:32:34 10° E visible
21 Apr 4.9 00:10:41 26° NNE 00:10:41 26° NNE 00:13:00 10° NE visible
21 Apr 4.9 01:46:47 13° NW 01:49:48 26° N 01:53:27 10° ENE visible
21 Apr 4.1 03:26:27 10° NW 03:30:35 43° NNE 03:34:42 10° E visible
22 Apr 4.8 00:11:59 29° NNE 00:11:59 29° NNE 00:14:52 10° NE visible
22 Apr 4.9 01:48:09 10° NW 01:51:51 27° N 01:55:33 10° ENE visible
22 Apr 3.7 03:28:17 10° NW 03:32:32 56° NNE 03:36:45 10° ESE visible
23 Apr 4.8 00:13:14 29° N 00:13:14 29° N 00:16:46 10° NE visible
23 Apr 4.8 01:50:07 10° NW 01:53:54 29° NNE 01:57:43 10° ENE visible
23 Apr 3.1 03:30:06 10° NW 03:34:25 75° NNE 03:38:42 10° ESE visible
23 Apr 5.7 22:38:19 11° NE 22:38:19 11° NE 22:38:34 10° NE visible
24 Apr 4.9 00:14:23 26° NNW 00:15:02 27° N 00:18:44 10° NE visible
24 Apr 4.6 01:52:00 10° NW 01:55:56 33° NNE 01:59:51 10° E visible
24 Apr 2.9 03:31:57 10° WNW 03:36:15 79° SW 03:40:32 10° SE visible
24 Apr 5.3 22:39:17 17° NE 22:39:17 17° NE 22:40:23 10° NE visible
25 Apr 5.0 00:15:20 20° NW 00:17:06 26° N 00:20:44 10° ENE visible
25 Apr 4.2 01:53:50 10° NW 01:57:55 40° NNE 02:01:59 10° E visible
25 Apr 3.0 03:33:50 10° WNW 03:38:02 54° SW 03:42:13 10° SE visible
25 Apr 4.6 19:16:30 10° SSE 19:18:37 14° SE 19:18:38 14° SE visible
25 Apr 4.6 20:53:42 10° SW 21:03:40 - ENE 20:55:10 21° SW visible
25 Apr 4.8 22:39:38 27° NNE 22:39:38 27° NNE 22:42:13 10° NE visible
